Current weather by "City, St" or "zip code"  
 

Current Conditions: University of Illinois - Willard, IL

Fair


55.0 F

Last Updated on Sep 18 2020, 1:53 am CDT
Humidity: 77%
Wind Speed: NE 10.4 mph
Barometer 30.17 in
Dewpoint: 48.0 F
Visibility: 10.00 mi
Precip: --
Heat Index: NA
Wind Chill: 52 F
Current conditions at:

University of Illinois - Willard, IL (KCMI)

Lat: 40.03245 Lon: 88.27547

Local Radar Image active severe weather and emergency alerts image image weather storm and storm spotter reports image weather observation monitoring service image
Local
Radar
Active
Alerts
Storm Reports Obs
Monitoring

Sign-up For Email & Text Message Weather Alert Notification Services



Advertise Here

Observation History for University of Illinois - Willard, IL


Time Wind
(mph)
Vis
(mi)
Weather Precip (in) Temperature (F) Relative
Humidity
Wind
Chill
(F)
Heat
Index
(F)
Pressure
Air Dwpt altimeter
(in)
sea level
(mb)
Rmks
1:53 am CDT NE 10.4 10.00 Fair -- 55.0 48.0 77% 52 NA 30.17 1021.4
12:53 am CDT NE 8.1 10.00 Fair -- 56.0 48.0 75% 54 NA 30.17 1021.3
11:53 pm CDT NE 11.5 G 18.4 10.00 Fair -- 57.0 48.9 74% 54 NA 30.16 1021.2
10:53 pm CDT NE 13.8 G 21.9 10.00 Fair -- 59.0 46.9 64% 56 NA 30.15 1020.7
9:53 pm CDT NE 16.1 G 26.5 10.00 A Few Clouds -- 60.0 46.9 62% 57 NA 30.14 1020.4
8:53 pm CDT NE 13.8 G 23.0 10.00 Fair -- 61.0 48.9 65% 59 NA 30.13 1020.1
7:53 pm CDT N 16.1 G 25.3 10.00 Fair -- 64.0 50.0 60% NA NA 30.11 1019.3
6:53 pm CDT N 10.4 10.00 Fair -- 66.0 55.0 68% NA NA 30.08 1018.3
5:53 pm CDT N 11.5 G 21.9 10.00 Fair -- 72.0 57.0 59% NA NA 30.06 1017.6
4:53 pm CDT N 10.4 G 19.6 8.00 Partly Cloudy -- 75.0 57.9 55% NA NA 30.05 1017.2
3:53 pm CDT NE 15.0 G 21.9 8.00 Partly Cloudy -- 76.0 57.9 54% NA NA 30.05 1017.3
2:53 pm CDT NE 11.5 9.00 A Few Clouds -- 76.0 61.0 60% NA NA 30.06 1017.6
1:53 pm CDT N 11.5 9.00 Overcast -- 72.0 62.1 71% NA NA 30.08 1018.2
12:53 pm CDT NE 12.7 10.00 Overcast -- 70.0 62.1 76% NA NA 30.09 1018.7
11:53 am CDT NE 12.7 G 23.0 9.00 Overcast -- 68.0 62.1 81% NA NA 30.10 1018.9
10:53 am CDT N 10.4 G 23.0 9.00 Overcast -- 68.0 63.0 84% NA NA 30.09 1018.7
9:53 am CDT N 15.0 7.00 Overcast -- 67.0 63.0 87% NA NA 30.07 1018.1
8:53 am CDT N 12.7 6.00 Fog/Mist -- 66.0 63.0 90% NA NA 30.06 1017.6
7:53 am CDT N 11.5 7.00 Overcast -- 65.0 63.0 93% NA NA 30.04 1017.0
6:53 am CDT N 10.4 9.00 Overcast -- 65.0 62.1 90% NA NA 30.03 1016.6
5:53 am CDT N 8.1 10.00 Overcast -- 66.0 62.1 87% NA NA 30.02 1016.1
4:53 am CDT N 5.8 10.00 Mostly Cloudy -- 63.0 60.1 90% 63 NA 30.02 1015.9
3:53 am CDT NW 3.5 10.00 Mostly Cloudy -- 58.0 55.9 93% NA NA 30.01 1015.8
2:53 am CDT NW 5.8 10.00 Fair -- 57.0 55.0 93% 56 NA 30.02 1016.2

Regional Weather Observation


Rantoul National Aviation Center Airport, IL (KTIP)

Fair
53.0 F

Bloomington/Normal, Central Illinois Regional Airport at Bloomington-Normal, IL (KBMI)

Fair
50.0 F

Pontiac Municipal Airport, IL (KPNT)

Fair
51.0 F

Decatur Airport, IL (KDEC)

Fair
52.0 F

Danville, Vermilion County Airport, IL (KDNV)

Fair
52.0 F

Logan County Airport, IL (KAAA)

Fair
53.0 F